K2CCS Weather Reports


Display with metric or nautical units.
time (UTC)temp
F
wind
direction
speed
MPH
gust
MPH
rain 1hr
in
rain 24hr
in
rain mn
in
humidity
%
barometer
mb
20260506182602 47 175 1.0 2.0 0.28 1.14 1.14 99 1010.6
20260506182059 47 18 1.0 1.0 0.19 1.11 1.11 99 1011.0
20260506181557 48 177 1.0 1.0 0.31 1.09 1.09 99 1010.6
20260506181053 48 145 1.0 1.0 0.42 1.08 1.08 99 1010.7
20260506180550 48 193 0.0 1.0 0.42 1.04 1.04 99 1011.0
20260506180047 48 190 1.0 2.0 0.54 1.01 1.01 99 1010.4
20260506175543 48 177 2.0 3.0 0.50 0.98 0.98 99 1010.5
20260506175039 47 193 0.0 0.0 0.24 0.92 0.92 99 1010.8
20260506174538 47 154 1.0 1.0 0.24 0.90 0.90 99 1010.8
20260506174034 47 193 1.0 2.0 0.17 0.88 0.88 99 1010.6
20260506173532 48 180 0.0 0.0 0.12 0.86 0.86 99 1010.7
20260506173028 47 182 0.0 0.0 0.42 0.85 0.85 99 1010.7
20260506172526 47 173 0.0 1.0 0.66 0.84 0.84 99 1010.6
20260506172022 47 208 0.0 0.0 0.42 0.78 0.78 99 1011.1
20260506171519 47 167 0.0 1.0 0.24 0.74 0.74 99 1011.0
20260506171017 47 186 0.0 0.0 0.12 0.71 0.71 99 1010.9
20260506170514 47 158 0.0 0.0 0.19 0.70 0.70 99 1010.8
20260506170006 47 179 0.0 1.0 0.19 0.69 0.69 99 1010.9
20260506165504 47 149 0.0 1.0 0.14 0.68 0.68 99 1011.2
20260506165000 47 354 3.0 5.0 0.05 0.66 0.66 99 1011.1
20260506164457 48 188 0.0 0.0 0.12 0.66 0.66 99 1011.0
20260506163954 48 191 0.0 0.0 0.12 0.65 0.65 99 1011.0
20260506163450 48 180 0.0 0.0 0.12 0.64 0.64 99 1011.0
20260506162944 48 201 0.0 0.0 0.31 0.63 0.63 99 1011.1
20260506162442 48 189 0.0 0.0 0.24 0.62 0.62 99 1011.0
20260506161934 48 150 0.0 0.0 0.05 0.58 0.58 99 1011.2
20260506161432 49 188 0.0 0.0 0.00 0.57 0.57 99 1011.4
20260506160929 48 173 1.0 1.0 0.14 0.57 0.57 99 1010.9
20260506160426 49 197 1.0 1.0 0.14 0.57 0.57 99 1011.5
20260506155923 49 191 0.0 0.0 0.19 0.56 0.56 99 1011.2
20260506155420 48 178 0.0 1.0 0.24 0.55 0.55 99 1011.3
20260506153543 48 163 1.0 2.0 0.19 0.48 0.48 99 1011.6
20260506153040 48 188 0.0 0.0 0.17 0.47 0.47 99 1011.6
20260506152537 48 188 0.0 0.0 0.19 0.45 0.45 99 1011.8
20260506152035 48 188 0.0 0.0 0.19 0.43 0.43 99 1011.9
20260506151532 48 182 1.0 1.0 0.17 0.42 0.42 99 1011.9
20260506151030 48 178 0.0 0.0 0.17 0.40 0.40 99 1011.9
20260506150526 49 189 0.0 0.0 0.12 0.38 0.38 99 1012.1
20260506150023 48 186 0.0 0.0 0.19 0.37 0.37 99 1012.0
20260506145519 48 2 2.0 3.0 0.17 0.36 0.36 99 1012.1
20260506145017 48 182 0.0 0.0 0.12 0.35 0.35 99 1012.2
20260506144513 49 184 0.0 0.0 0.12 0.34 0.34 99 1012.4
20260506144011 49 182 0.0 0.0 0.12 0.32 0.32 99 1012.5
20260506143509 50 189 0.0 0.0 0.14 0.31 0.31 99 1012.4
20260506143007 50 190 0.0 0.0 0.12 0.30 0.30 99 1012.3
20260506142504 50 182 0.0 0.0 0.19 0.30 0.30 99 1012.8
20260506142002 50 191 0.0 0.0 0.19 0.28 0.28 99 1012.7
20260506141500 50 189 0.0 0.0 0.17 0.27 0.27 99 1012.8
20260506140958 50 189 0.0 0.0 0.12 0.25 0.25 99 1012.6
20260506140455 50 187 0.0 0.0 0.12 0.24 0.24 99 1012.4
20260506135952 51 180 0.0 0.0 0.12 0.23 0.23 99 1012.5
20260506135449 51 190 0.0 0.0 0.12 0.22 0.22 99 1012.3
20260506134944 51 187 1.0 1.0 0.12 0.21 0.21 99 1012.2
20260506134441 51 194 0.0 0.0 0.12 0.20 0.20 99 1012.1
20260506133938 51 187 1.0 1.0 0.12 0.19 0.19 99 1012.3
20260506133435 51 185 0.0 0.0 0.14 0.18 0.18 99 1012.1
20260506132932 52 190 0.0 0.0 0.07 0.17 0.17 99 1012.2
20260506132429 51 190 0.0 0.0 0.05 0.16 0.16 99 1011.9
20260506131926 51 188 0.0 0.0 0.12 0.16 0.16 99 1012.1
20260506131422 52 171 1.0 1.0 0.07 0.15 0.15 99 1012.1
20260506130920 53 190 0.0 0.0 0.05 0.14 0.14 99 1012.4
20260506130416 53 186 0.0 0.0 0.12 0.14 0.14 99 1012.3
20260506125914 53 193 0.0 0.0 0.07 0.13 0.13 99 1012.3
20260506125412 53 190 0.0 0.0 0.12 0.13 0.13 99 1012.3
20260506124910 53 188 0.0 0.0 0.12 0.12 0.12 99 1012.1
20260506124407 54 185 0.0 0.0 0.12 0.11 0.11 99 1012.3
20260506123905 54 189 0.0 0.0 0.05 0.10 0.10 99 1012.2
20260506123403 54 181 1.0 1.0 0.12 0.10 0.10 99 1012.4
20260506122900 54 190 0.0 0.0 0.19 0.09 0.09 98 1012.3
20260506122356 54 195 0.0 0.0 0.12 0.08 0.08 98 1012.6
20260506121855 54 201 0.0 0.0 0.14 0.07 0.07 98 1012.8
20260506121352 54 190 0.0 0.0 0.12 0.06 0.06 98 1012.6
20260506120848 54 187 0.0 0.0 0.05 0.05 0.05 98 1012.9
20260506120346 54 184 0.0 0.0 0.07 0.04 0.04 98 1012.1
20260506115843 55 204 0.0 1.0 0.07 0.04 0.04 98 1012.4
20260506115342 55 197 0.0 0.0 0.05 0.03 0.03 98 1012.2
20260506114839 55 195 1.0 1.0 0.05 0.03 0.03 98 1012.4
20260506114337 55 192 0.0 0.0 0.00 0.02 0.02 98 1012.0
20260506113835 55 195 0.0 0.0 0.00 0.02 0.02 98 1012.2
20260506113332 55 163 1.0 1.0 0.00 0.02 0.02 98 1012.1
20260506112829 56 192 0.0 0.0 0.00 0.02 0.02 98 1012.4
20260506112326 55 191 0.0 0.0 0.07 0.02 0.02 98 1012.4
20260506111824 55 192 0.0 0.0 0.07 0.02 0.02 98 1012.2
20260506111322 55 192 0.0 0.0 0.00 0.01 0.01 98 1012.1
20260506110819 55 192 0.0 0.0 0.00 0.01 0.01 98 1011.9
20260506110316 55 204 0.0 0.0 0.00 0.01 0.01 98 1012.1
20260506105812 55 171 1.0 1.0 0.00 0.01 0.01 97 1012.0
20260506105309 55 216 1.0 1.0 0.00 0.01 0.01 97 1011.9
20260506104807 55 194 0.0 0.0 0.00 0.01 0.01 97 1012.1
20260506104304 55 210 1.0 1.0 0.00 0.01 0.01 96 1012.2
20260506103801 55 187 0.0 0.0 0.05 0.01 0.01 96 1011.9
20260506103259 55 197 0.0 0.0 0.05 0.01 0.01 95 1011.8
20260506102756 55 215 2.0 2.0 0.00 0.00 0.00 95 1012.0
20260506102254 55 172 0.0 1.0 0.00 0.00 0.00 95 1011.9
20260506101751 55 198 0.0 0.0 0.00 0.00 0.00 95 1012.0
20260506101247 55 202 0.0 1.0 0.00 0.00 0.00 95 1011.8
20260506100745 55 193 0.0 0.0 0.00 0.00 0.00 96 1011.9
20260506100243 55 232 1.0 2.0 0.00 0.00 0.00 96 1011.7
20260506095742 55 195 0.0 0.0 0.00 0.00 0.00 96 1011.7
20260506095238 55 182 1.0 1.0 0.00 0.00 0.00 96 1011.5
20260506094735 56 188 0.0 1.0 0.00 0.00 0.00 96 1011.5
20260506094233 56 197 1.0 1.0 0.00 0.00 0.00 96 1011.7
20260506093732 56 161 1.0 1.0 0.00 0.00 0.00 96 1011.9
20260506093228 56 187 1.0 1.0 0.00 0.00 0.00 95 1011.7
20260506092726 56 177 0.0 0.0 0.00 0.00 0.00 95 1011.9
20260506092224 56 170 1.0 1.0 0.00 0.00 0.00 95 1011.9
20260506091721 56 182 1.0 1.0 0.00 0.00 0.00 94 1011.8
20260506091218 56 197 1.0 1.0 0.00 0.00 0.00 94 1012.0
20260506090716 56 193 1.0 1.0 0.00 0.00 0.00 94 1011.8
20260506090212 56 230 2.0 2.0 0.00 0.00 0.00 94 1011.9
20260506085710 56 187 1.0 1.0 0.00 0.00 0.00 94 1011.8
20260506085205 57 206 1.0 1.0 0.00 0.00 0.00 94 1011.9
20260506084703 57 176 1.0 1.0 0.00 0.00 0.00 94 1011.9
20260506084159 57 351 2.0 3.0 0.00 0.00 0.00 94 1012.2
20260506083656 57 176 2.0 2.0 0.00 0.00 0.00 94 1011.9
20260506083154 57 192 0.0 0.0 0.00 0.00 0.00 94 1012.0
20260506082651 57 199 0.0 0.0 0.00 0.00 0.00 95 1012.1
20260506082151 57 189 0.0 0.0 0.00 0.00 0.00 95 1012.3
20260506081649 57 189 0.0 0.0 0.00 0.00 0.00 95 1012.6
20260506081147 57 193 0.0 1.0 0.00 0.00 0.00 95 1012.4
20260506080644 57 171 1.0 1.0 0.00 0.00 0.00 95 1012.4
20260506080141 57 193 0.0 0.0 0.00 0.00 0.00 96 1011.9
20260506073125 57 193 0.0 0.0 0.00 0.00 0.00 94 1012.9
20260506072621 57 196 0.0 0.0 0.00 0.00 0.00 94 1012.6
20260506072119 57 205 1.0 1.0 0.00 0.00 0.00 94 1012.8
20260506071617 57 203 0.0 0.0 0.00 0.00 0.00 94 1012.5
20260506071114 57 203 0.0 0.0 0.00 0.00 0.00 94 1012.4
20260506070611 58 199 0.0 0.0 0.00 0.00 0.00 93 1012.3
20260506070108 58 202 0.0 0.0 0.00 0.00 0.00 93 1012.4
20260506062045 59 201 0.0 0.0 0.00 0.00 0.00 90 1012.8
20260506061541 59 201 0.0 0.0 0.00 0.00 0.00 90 1012.9
20260506061039 59 201 0.0 0.0 0.00 0.00 0.00 89 1012.5
20260506060537 59 201 0.0 0.0 0.00 0.00 0.00 89 1012.8
20260506051006 60 190 0.0 0.0 0.00 0.00 0.00 81 1012.6
20260506050504 61 190 0.0 0.0 0.00 0.00 0.00 80 1012.5
20260506044954 63 196 0.0 0.0 0.00 0.00 0.00 76 1012.7
20260506044452 63 298 2.0 3.0 0.00 0.00 0.00 75 1013.2
20260506043948 63 245 2.0 2.0 0.00 0.00 0.00 76 1013.1
20260506043446 63 197 0.0 0.0 0.00 0.00 0.00 77 1013.2
20260506042944 63 218 3.0 3.0 0.00 0.00 0.00 77 1013.1
20260506042443 63 201 1.0 1.0 0.00 0.00 0.00 79 1013.2
20260506041940 63 197 1.0 2.0 0.00 0.00 0.00 81 1013.0
20260506041438 63 210 0.0 1.0 0.00 0.00 0.00 81 1012.8
20260506040935 63 200 1.0 1.0 0.00 0.00 0.00 81 1012.5
20260506040433 62 222 1.0 2.0 0.00 0.00 0.00 82 1012.6
20260506035928 62 201 0.0 0.0 0.00 0.06 0.06 83 1012.5
20260506035426 62 205 0.0 0.0 0.00 0.06 0.06 84 1013.0
20260506034923 62 205 0.0 0.0 0.00 0.06 0.06 85 1013.0
20260506034420 62 189 0.0 0.0 0.00 0.06 0.06 84 1013.0
20260506033917 62 189 0.0 0.0 0.00 0.06 0.06 84 1012.8
20260506033414 63 200 0.0 0.0 0.00 0.06 0.06 83 1012.6
20260506032911 63 196 0.0 0.0 0.00 0.06 0.06 83 1012.6
20260506032408 63 200 1.0 1.0 0.00 0.06 0.06 83 1012.6
20260506031905 62 202 0.0 0.0 0.00 0.06 0.06 84 1012.6
20260506031402 62 196 0.0 0.0 0.00 0.06 0.06 84 1012.5
20260506030859 62 200 0.0 1.0 0.00 0.06 0.06 84 1012.7
20260506030358 62 213 0.0 0.0 0.00 0.06 0.06 84 1012.6
20260506025854 63 191 0.0 0.0 0.00 0.06 0.06 83 1012.2
20260506025351 62 192 0.0 1.0 0.00 0.06 0.06 83 1012.0
20260506024848 62 202 0.0 0.0 0.00 0.06 0.06 83 1012.5
20260506024345 63 202 0.0 0.0 0.00 0.06 0.06 83 1012.4
20260506023840 63 194 0.0 0.0 0.00 0.06 0.06 83 1012.1
20260506023337 63 194 0.0 1.0 0.00 0.06 0.06 82 1011.8
20260506022834 63 187 0.0 0.0 0.00 0.06 0.06 82 1011.7
20260506022332 63 188 0.0 0.0 0.00 0.06 0.06 82 1012.0
20260506021830 63 196 0.0 0.0 0.00 0.06 0.06 81 1012.1
20260506021327 63 193 0.0 0.0 0.00 0.06 0.06 80 1012.1
20260506020823 63 180 1.0 2.0 0.00 0.06 0.06 80 1012.1
20260506020321 63 187 1.0 1.0 0.00 0.06 0.06 80 1011.8
20260506015819 63 192 0.0 1.0 0.00 0.06 0.06 81 1011.8
20260506015316 63 201 0.0 0.0 0.00 0.06 0.06 80 1011.9
20260506014812 63 196 0.0 0.0 0.00 0.06 0.06 80 1011.9
20260506014309 63 189 0.0 0.0 0.00 0.06 0.06 80 1011.6
20260506013806 63 183 1.0 1.0 0.00 0.06 0.06 80 1011.7
20260506013303 63 195 1.0 1.0 0.00 0.06 0.06 80 1011.5
20260506012800 63 190 0.0 0.0 0.00 0.06 0.06 80 1011.6
20260506012257 63 175 0.0 0.0 0.00 0.06 0.06 79 1011.3
20260506011754 64 196 0.0 0.0 0.00 0.06 0.06 78 1011.4
20260506011250 64 192 0.0 0.0 0.00 0.06 0.06 78 1011.5
20260506010749 64 188 0.0 0.0 0.00 0.06 0.06 77 1011.4
20260506010246 64 183 1.0 1.0 0.00 0.06 0.06 77 1011.6
20260506005743 64 190 1.0 1.0 0.00 0.06 0.06 77 1011.3
20260506005239 64 181 0.0 1.0 0.00 0.06 0.06 77 1011.1
20260506004735 64 194 0.0 0.0 0.00 0.06 0.06 76 1010.8
20260506004233 64 194 0.0 0.0 0.00 0.06 0.06 77 1010.7
20260506003729 64 189 0.0 0.0 0.00 0.06 0.06 76 1010.6
20260506003226 64 188 1.0 1.0 0.00 0.06 0.06 75 1010.6
20260506002721 64 189 0.0 1.0 0.00 0.06 0.06 75 1010.7
20260506002218 64 189 0.0 0.0 0.00 0.06 0.06 74 1010.5
20260506001714 65 181 1.0 1.0 0.00 0.06 0.06 74 1010.4
20260506001212 65 193 0.0 0.0 0.00 0.06 0.06 73 1010.4
20260506000708 65 193 0.0 0.0 0.00 0.06 0.06 72 1010.4
20260506000206 66 192 0.0 0.0 0.00 0.06 0.06 70 1010.4
20260505235703 67 192 0.0 0.0 0.00 0.06 0.06 69 1010.4
20260505235201 67 177 1.0 1.0 0.00 0.06 0.06 67 1010.6
20260505234657 68 230 2.0 2.0 0.00 0.06 0.06 66 1010.2
20260505234155 68 224 3.0 5.0 0.00 0.06 0.06 66 1010.2
20260505233651 68 212 1.0 2.0 0.00 0.06 0.06 66 1010.1
20260505233149 68 201 1.0 1.0 0.00 0.06 0.06 65 1010.2
20260505232646 68 280 4.0 6.0 0.00 0.06 0.06 64 1009.7
20260505232144 68 238 4.0 5.0 0.00 0.06 0.06 65 1009.9
20260505231640 68 299 4.0 5.0 0.00 0.06 0.06 64 1010.0
20260505231139 68 199 2.0 2.0 0.00 0.06 0.06 65 1009.7
20260505230637 68 241 3.0 6.0 0.00 0.06 0.06 65 1009.9
20260505230133 68 213 3.0 3.0 0.00 0.06 0.06 66 1009.5
20260505225629 68 213 3.0 6.0 0.00 0.06 0.06 67 1009.7
20260505225125 68 179 1.0 2.0 0.00 0.06 0.06 67 1009.9
20260505224622 68 193 4.0 5.0 0.00 0.06 0.06 66 1009.6
20260505224120 69 193 4.0 5.0 0.00 0.06 0.06 64 1009.8
20260505223617 69 204 4.0 7.0 0.00 0.06 0.06 63 1009.9
20260505223113 68 179 8.0 13.0 0.00 0.06 0.06 64 1010.0
20260505222610 68 229 5.0 6.0 0.00 0.06 0.06 65 1010.0
20260505222106 69 149 7.0 11.0 0.00 0.06 0.06 63 1009.9
20260505221603 69 237 8.0 11.0 0.00 0.06 0.06 61 1009.6
20260505221059 69 210 5.0 7.0 0.00 0.06 0.06 61 1009.1
20260505220556 68 220 3.0 7.0 0.00 0.06 0.06 63 1009.2
20260505220054 69 209 5.0 7.0 0.00 0.06 0.06 61 1009.0
20260505215552 69 223 11.0 14.0 0.00 0.06 0.06 60 1009.1
20260505215050 69 218 6.0 8.0 0.00 0.06 0.06 61 1009.0
20260505214548 68 230 7.0 13.0 0.00 0.06 0.06 61 1008.6
20260505214044 68 229 7.0 9.0 0.00 0.06 0.06 63 1008.9
20260505213542 68 217 4.0 6.0 0.00 0.06 0.06 66 1009.0
20260505213038 67 305 5.0 9.0 0.00 0.06 0.06 67 1008.6
20260505212535 68 295 7.0 10.0 0.00 0.06 0.06 66 1009.0
20260505212032 68 263 4.0 5.0 0.00 0.06 0.06 64 1009.3
20260505211529 69 242 5.0 7.0 0.00 0.06 0.06 65 1009.4
20260505211026 69 220 3.0 5.0 0.00 0.06 0.06 65 1009.6
20260505210523 69 244 5.0 8.0 0.00 0.06 0.06 65 1009.4
20260505210020 70 167 8.0 10.0 0.00 0.06 0.06 64 1009.5
20260505205518 71 117 3.0 3.0 0.00 0.06 0.06 63 1009.3
20260505205014 71 280 9.0 11.0 0.00 0.06 0.06 62 1009.3
20260505204512 71 212 6.0 11.0 0.00 0.06 0.06 63 1009.1
20260505204009 71 211 3.0 3.0 0.00 0.06 0.06 63 1008.5
20260505203506 73 266 8.0 11.0 0.00 0.06 0.06 61 1008.3
20260505203003 73 211 5.0 8.0 0.00 0.06 0.06 60 1008.1
20260505202459 72 236 3.0 3.0 0.00 0.06 0.06 61 1008.2
20260505201955 71 199 4.0 6.0 0.00 0.06 0.06 64 1008.0
20260505201452 70 216 2.0 2.0 0.00 0.06 0.06 66 1007.9
20260505200949 68 212 2.0 2.0 0.00 0.06 0.06 70 1007.8
20260505200447 67 106 2.0 2.0 0.00 0.06 0.06 71 1007.3
20260505195943 66 200 0.0 0.0 0.00 0.06 0.06 73 1007.9
20260505195440 67 186 3.0 5.0 0.00 0.06 0.06 73 1009.1
20260505194937 67 292 11.0 15.0 0.00 0.06 0.06 72 1009.4
20260505194435 68 197 3.0 6.0 0.00 0.06 0.06 71 1009.6
20260505193934 68 212 2.0 3.0 0.07 0.06 0.06 69 1009.5
20260505193432 68 215 5.0 7.0 0.07 0.06 0.06 70 1009.0
20260505192930 68 304 3.0 3.0 0.05 0.05 0.05 68 1009.3
20260505192428 67 233 8.0 10.0 0.17 0.05 0.05 66 1007.9
20260505191925 66 192 7.0 9.0 0.28 0.05 0.05 73 1008.3
20260505191424 71 224 5.0 9.0 0.17 0.03 0.03 69 1008.6
20260505190920 79 253 3.0 6.0 0.00 0.00 0.00 41 1007.6
20260505190416 79 233 5.0 8.0 0.00 0.00 0.00 38 1007.0
20260505185911 80 158 3.0 3.0 0.00 0.00 0.00 37 1006.6
20260505185409 80 178 5.0 7.0 0.00 0.00 0.00 37 1006.6
20260505184904 79 164 5.0 7.0 0.00 0.00 0.00 40 1006.5
20260505184401 79 156 2.0 3.0 0.00 0.00 0.00 44 1006.8
20260505183859 80 129 1.0 2.0 0.00 0.00 0.00 43 1006.7
20260505183355 79 172 2.0 2.0 0.00 0.00 0.00 44 1006.6